FW1693 Weather Reports


time (UTC)temp
F
wind
direction
speed
knots
gust
knots
rain 1hr
in
rain 24hr
in
rain mn
in
humidity
%
barometer
mb
20260507113031 65 68 5.2 6.1 0.00 0.19 0.00 69 1014.8
20260507111602 64 68 4.3 6.1 0.00 0.19 0.00 68 1014.9
20260507104557 64 63 4.3 6.1 0.00 0.19 0.00 69 1015.1
20260507103057 64 65 5.2 6.1 0.00 0.19 0.00 65 1015.1
20260507101557 64 61 5.2 7.0 0.00 0.19 0.00 66 1015.2
20260507100055 64 64 4.3 5.2 0.00 0.19 0.00 65 1015.3
20260507094552 64 62 4.3 5.2 0.00 0.19 0.00 62 1015.3
20260507093055 64 68 3.5 5.2 0.00 0.19 0.00 60 1015.3
20260507091550 64 65 3.5 5.2 0.00 0.19 0.00 59 1015.3
20260507090049 64 101 3.5 3.5 0.00 0.19 0.00 64 1015.2
20260507084547 64 79 2.6 3.5 0.00 0.19 0.00 62 1015.0
20260507083044 64 65 3.5 4.3 0.00 0.19 0.00 62 1014.9
20260507081543 64 66 2.6 2.6 0.00 0.19 0.00 64 1014.8
20260507080042 65 86 0.9 3.5 0.00 0.19 0.00 52 1014.6
20260507074539 65 64 1.7 3.5 0.00 0.19 0.00 53 1014.7
20260507073038 65 171 1.7 4.3 0.00 0.20 0.00 58 1014.6
20260507073005 65 184 1.7 4.3 0.00 0.20 0.00 60 1014.6
20260507071558 65 244 0.9 4.3 0.00 0.20 0.00 59 1014.7
20260507070032 64 270 1.7 6.1 0.00 0.20 0.00 62 1014.7
20260507064527 64 268 2.6 6.1 0.00 0.20 0.00 61 1014.5
20260507063057 63 248 2.6 5.2 0.00 0.20 0.00 65 1014.5
20260507061556 62 272 1.7 4.3 0.00 0.20 0.00 67 1014.3
20260507060044 61 241 1.7 3.5 0.00 0.20 0.00 72 1014.1
20260507054541 60 276 1.7 4.3 0.00 0.20 0.00 73 1014.1
20260507053105 59 260 1.7 3.5 0.00 0.23 0.00 74 1014.0
20260507051542 58 257 0.9 3.5 0.00 0.23 0.00 75 1013.9
20260507050036 56 262 0.9 3.5 0.00 0.23 0.00 77 1013.8
20260507044531 55 217 0.9 3.5 0.00 0.23 0.00 78 1013.4
20260507043028 55 212 1.7 2.6 0.00 0.23 0.00 78 1013.3
20260507041528 55 229 0.9 2.6 0.00 0.23 0.00 79 1013.1
20260507040100 55 243 0.0 1.7 0.00 0.23 0.00 81 1013.0
20260507034555 56 225 0.0 1.7 0.00 0.23 0.00 77 1013.0
20260507033051 57 259 0.9 3.5 0.00 0.23 0.00 76 1013.0
20260507031551 57 276 0.0 2.6 0.00 0.23 0.00 77 1012.8
20260507030047 57 266 0.0 1.7 0.00 0.23 0.00 77 1012.9
20260507024545 57 252 0.0 3.5 0.00 0.23 0.00 76 1012.8
20260507023042 57 252 0.9 2.6 0.00 0.23 0.00 78 1012.9
20260507021543 57 279 0.9 2.6 0.00 0.23 0.00 78 1013.0
20260507020041 58 241 0.0 2.6 0.00 0.23 0.00 78 1012.9
20260507014547 58 255 1.7 6.1 0.00 0.23 0.00 76 1013.0
20260507013031 58 262 2.6 6.1 0.00 0.23 0.19 76 1012.7
20260507011538 58 222 2.6 7.0 0.00 0.23 0.19 78 1012.6
20260507010112 58 241 3.5 7.0 0.00 0.23 0.19 79 1012.6
20260507004615 58 210 2.6 7.0 0.00 0.23 0.19 78 1012.6
20260507003029 58 148 1.7 6.1 0.00 0.23 0.19 78 1012.7
20260507001528 58 223 3.5 7.8 0.00 0.23 0.19 79 1012.6
20260507000026 58 207 2.6 7.8 0.01 0.23 0.19 80 1012.8
20260506234525 58 224 0.9 4.3 0.01 0.23 0.19 80 1013.0
20260506233025 58 242 1.7 4.3 0.01 0.23 0.19 81 1013.2
20260506231523 58 258 0.9 6.1 0.01 0.23 0.19 81 1013.2
20260506230020 59 256 2.6 6.1 0.00 0.22 0.18 79 1013.3
20260506224520 59 233 2.6 5.2 0.00 0.22 0.18 81 1013.3
20260506223018 59 293 0.9 4.3 0.00 0.22 0.18 85 1013.3
20260506221517 59 230 0.0 0.9 0.00 0.22 0.18 85 1013.2
20260506220028 59 228 0.0 3.5 0.00 0.22 0.18 84 1013.1
20260506214512 59 288 0.9 4.3 0.00 0.22 0.18 83 1013.1
20260506213012 59 257 1.7 7.8 0.00 0.22 0.18 82 1013.2
20260506211511 59 298 1.7 7.0 0.00 0.22 0.18 82 1012.9
20260506210012 60 259 4.3 10.4 0.01 0.22 0.18 79 1013.0
20260506204508 60 227 2.6 6.1 0.01 0.22 0.18 83 1012.9
20260506203008 60 229 1.7 7.8 0.03 0.22 0.18 85 1012.9
20260506201506 59 198 3.5 6.1 0.03 0.22 0.18 86 1012.9
20260506200004 59 252 0.0 3.5 0.03 0.21 0.17 86 1012.7
20260506194503 60 206 0.9 7.0 0.03 0.21 0.17 84 1012.4
20260506193059 60 233 1.7 4.3 0.01 0.19 0.15 85 1012.4
20260506191608 60 250 0.0 3.5 0.02 0.19 0.15 86 1012.1
20260506190028 60 224 0.0 4.3 0.08 0.18 0.14 85 1011.9
20260506184526 60 248 0.0 4.3 0.10 0.18 0.14 84 1011.7
20260506183132 60 208 0.0 1.7 0.10 0.18 0.14 83 1011.4
20260506181600 60 274 0.9 9.6 0.09 0.17 0.13 84 1011.7
20260506180111 62 311 2.6 9.6 0.03 0.10 0.06 82 1011.8
20260506174545 63 281 1.7 7.0 0.01 0.08 0.04 78 1011.2
20260506173113 63 251 1.7 5.2 0.01 0.08 0.04 77 1010.8
20260506173059 63 236 1.7 5.2 0.01 0.08 0.04 77 1010.8
20260506171546 63 285 2.6 7.8 0.01 0.08 0.04 77 1010.7
20260506170043 62 231 0.0 4.3 0.00 0.07 0.03 79 1010.6
20260506164513 62 302 1.7 6.1 0.00 0.07 0.03 79 1010.4
20260506163015 62 287 0.9 3.5 0.02 0.07 0.03 79 1010.7
20260506161506 62 300 0.9 5.2 0.03 0.07 0.03 79 1010.8
20260506160006 61 218 0.0 3.5 0.03 0.07 0.03 81 1011.0
20260506154503 61 250 1.7 7.8 0.03 0.07 0.03 80 1011.1
20260506153005 61 271 3.5 8.7 0.02 0.06 0.02 79 1011.1
20260506151601 64 274 3.5 15.6 0.00 0.04 0.00 79 1011.2
20260506150101 66 359 2.6 9.6 0.00 0.04 0.00 76 1011.0
20260506144607 69 281 4.3 12.2 0.00 0.04 0.00 66 1010.6
20260506143057 71 230 4.3 9.6 0.00 0.04 0.00 57 1010.2
20260506141553 70 206 7.0 11.3 0.00 0.04 0.00 58 1010.4
20260506140057 71 150 7.8 13.0 0.00 0.04 0.00 64 1010.4
20260506134551 70 160 6.1 11.3 0.00 0.04 0.00 64 1010.5
20260506133049 70 173 8.7 14.8 0.00 0.04 0.00 65 1010.7
20260506131542 70 160 7.8 12.2 0.00 0.04 0.00 64 1010.9
20260506130039 69 233 5.2 13.0 0.00 0.04 0.00 64 1011.1
20260506124540 69 183 7.8 14.8 0.00 0.04 0.00 69 1011.1
20260506123037 69 167 8.7 14.8 0.00 0.04 0.00 67 1011.1
20260506121532 68 160 10.4 13.9 0.00 0.04 0.00 69 1011.2
20260506120033 69 167 9.6 14.8 0.00 0.04 0.00 65 1011.3
20260506114530 69 179 6.1 13.0 0.00 0.04 0.00 63 1011.4